Hurghada, Egypt

4:12 PM EET on January 17, 2018 (GMT +0200)
Hurghada

Weather History for HEGN - November, 2013

Change the Weather History Date:

Sunday, November 10, 2013

  Actual Average Record
Temperature  
Mean Temperature 76 °F -  
Max Temperature 85 °F 75 °F 97 °F (2016)
Min Temperature 66 °F 59 °F 60 °F (2006)
Cooling Degree Days 10    
Growing Degree Days 26 (Base 50)    
Moisture  
Dew Point 63 °F    
Average Humidity 67    
Maximum Humidity 83    
Minimum Humidity 43    
Precipitation  
Precipitation 0.00 in - - ()
Sea Level Pressure  
Sea Level Pressure 29.88 in    
Wind  
Wind Speed 9 mph ()    
Max Wind Speed 15 mph    
Max Gust Speed -    
Visibility 6.0 miles    
Events      
Averages and records for this station are not official NWS values.
T = Trace of Precipitation, MM = Missing Value Source: Averaged Metar Reports

Daily Weather History Graph

Daily Weather History Graph

Search for Another Location

Airport or City:

Trip Planner

Search our weather history database for the weather conditions in past years. The results will help you decide how hot, cold, wet, or windy it might be!

Date:

Astronomy

Nov. 10, 2013 Rise Set
Actual Time 6:01 AM EET 4:56 PM EET
Civil Twilight 5:37 AM EET 5:20 PM EET
Nautical Twilight 5:09 AM EET 5:48 PM EET
Astronomical Twilight 4:41 AM EET 6:16 PM EET
Moon 12:12 PM EET (11/10) 11:59 PM EET (11/10)
Length of Visible Light 11h 43m
Length of Day
10h 54m
First Quarter, 52% of the Moon is Illuminated
Nov 10
First Quarter
Nov 17
Full
Nov 25
Last Quarter
Dec 3
New
Dec 9
First Quarter

Hourly Weather History & Observations

Time (EET) Temp. Heat Index Dew Point Humidity Pressure Visibility Wind Dir Wind Speed Gust Speed Precip Events Conditions
12:00 AM 71.6 °F - 59.0 °F 64% 29.86 in - WNW 11.5 mph - N/A   Clear
1:00 AM 71.6 °F - 60.8 °F 69% 29.86 in - NW 12.7 mph - N/A   Clear
2:00 AM 70 °F - 62 °F 69% 29.86 in 6 mi NW 15.0 mph - -  
2:00 AM 69.8 °F - 62.6 °F 78% 29.86 in - NW 15.0 mph - N/A   Clear
3:00 AM 69.8 °F - 62.6 °F 78% 29.86 in - NW 12.7 mph - N/A   Clear
4:00 AM 68.0 °F - 62.6 °F 83% 29.86 in - NW 11.5 mph - N/A   Clear
5:00 AM 68.0 °F - 62.6 °F 83% 29.86 in - NW 12.7 mph - N/A   Clear
6:00 AM 66.2 °F - 60.8 °F 83% 29.89 in - North 4.6 mph - N/A   Clear
7:00 AM 68.0 °F - 60.8 °F 78% 29.92 in - WNW 9.2 mph - N/A   Unknown
8:00 AM 70 °F - 62 °F 69% 29.93 in 6 mi WNW 11.5 mph - -  
8:00 AM 69.8 °F - 60.8 °F 73% 29.92 in - WNW 11.5 mph - N/A   Unknown
9:00 AM 75.2 °F - 60.8 °F 61% 29.92 in - NNW 11.5 mph - N/A   Unknown
10:00 AM 78.8 °F - 62.6 °F 57% 29.92 in - North 11.5 mph - N/A   Unknown
11:00 AM 80.6 °F 82.3 °F 64.4 °F 58% 29.89 in - NNW 13.8 mph - N/A   Unknown
12:00 PM 84.2 °F 85.6 °F 64.4 °F 51% 29.86 in - NNE 13.8 mph - N/A   Unknown
1:00 PM 84.2 °F 85.6 °F 64.4 °F 51% 29.86 in - NNE 13.8 mph - N/A   Unknown
2:00 PM 85 °F - 66 °F 43% 29.85 in 6 mi NNE 10.4 mph - -  
2:00 PM 84.2 °F 86.6 °F 66.2 °F 55% 2.98 in - NNE 10.4 mph - N/A   Clear
3:00 PM 84.2 °F 86.6 °F 66.2 °F 55% 29.83 in - NNE 9.2 mph - N/A   Clear
4:00 PM 82.4 °F 83.9 °F 64.4 °F 54% 29.83 in - NNE 5.8 mph - N/A   Clear
5:00 PM 75.2 °F - 66.2 °F 73% 29.86 in - Calm Calm - N/A   Clear
6:00 PM 75.2 °F - 66.2 °F 73% 29.86 in - Calm Calm - N/A   Clear
7:00 PM 73.4 °F - 64.4 °F 73% 29.89 in - WNW 4.6 mph - N/A   Clear
8:00 PM 73 °F - 64 °F 66% 29.91 in 6 mi Calm Calm - -  
8:00 PM 73.4 °F - 64.4 °F 73% 29.89 in - Calm Calm - N/A   Clear
9:00 PM 69.8 °F - 60.8 °F 73% 29.92 in - Calm Calm - N/A   Clear
10:00 PM 69.8 °F - 59.0 °F 68% 29.92 in - WNW 5.8 mph - N/A   Clear
11:00 PM 69.8 °F - 60.8 °F 73% 29.89 in - WNW 3.5 mph - N/A   Clear